Weather History for KMTP - February, 2014

Change the Weather History Date:

Tuesday, February 4, 2014

  Actual Average (KHTO) Record (KHTO)
Temperature  
Mean Temperature 29 °F -  
Max Temperature 34 °F 37 °F 62 °F (1991)
Min Temperature 24 °F 23 °F 1 °F (1934)
Degree Days  
Heating Degree Days 36    
Moisture  
Dew Point 22 °F    
Average Humidity 72    
Maximum Humidity 88    
Minimum Humidity 59    
Precipitation  
Precipitation 0.00 in - - ()
Sea Level Pressure  
Sea Level Pressure 30.39 in    
Wind  
Wind Speed 6 mph (North)    
Max Wind Speed 10 mph    
Max Gust Speed -    
Averages and records for this station are not official NWS values.
T = Trace of Precipitation, MM = Missing Value Source: NWS Daily Summary

Daily Weather History Graph

Daily Weather History Graph

Search for Another Location

Airport or City:

Trip Planner

Search our weather history database for the weather conditions in past years. The results will help you decide how hot, cold, wet, or windy it might be!

Date:

Astronomy

Feb. 04, 2014 Rise Set
Actual Time 6:55 AM EST 5:08 PM EST
Civil Twilight 6:26 AM EST 5:37 PM EST
Nautical Twilight 5:53 AM EST 6:10 PM EST
Astronomical Twilight 5:21 AM EST 6:42 PM EST
Moon 9:28 AM EST (2/4) 11:02 PM EST (2/4)
Length of Visible Light 11h 10m
Length of Day
10h 13m
Waxing Crescent, 29% of the Moon is Illuminated
Feb 4
Waxing Crescent
Feb 6
First Quarter
Feb 14
Full
Feb 22
Last Quarter
Mar 1
New

Hourly Weather History & Observations

Time (EST) Temp. Windchill Dew Point Humidity Pressure Visibility Wind Dir Wind Speed Gust Speed Precip Events Conditions
12:54 AM 32.0 °F 24.8 °F 25.0 °F 75% 30.30 in - North 8.1 mph - N/A   Unknown
1:54 AM 32.0 °F 26.4 °F 25.0 °F 75% 30.31 in - North 5.8 mph - N/A   Unknown
2:54 AM 30.9 °F 23.5 °F 25.0 °F 79% 30.33 in - NNW 8.1 mph - N/A   Unknown
3:54 AM 30.9 °F 23.5 °F 24.1 °F 76% 30.34 in - North 8.1 mph - N/A   Unknown
4:54 AM 30.9 °F 24.3 °F 23.0 °F 72% 30.36 in - North 6.9 mph - N/A   Unknown
5:54 AM 30.9 °F 22.2 °F 21.0 °F 67% 30.38 in - North 10.4 mph - N/A   Unknown
6:54 AM 30.0 °F 22.4 °F 19.9 °F 66% 30.40 in - North 8.1 mph - N/A   Unknown
7:54 AM 30.0 °F 22.4 °F 21.0 °F 69% 30.42 in - North 8.1 mph - N/A   Unknown
8:54 AM 30.9 °F 25.2 °F 21.0 °F 67% 30.44 in - NNE 5.8 mph - N/A   Unknown
9:54 AM 32.0 °F 24.2 °F 21.0 °F 64% 30.47 in - NNE 9.2 mph - N/A   Unknown
10:54 AM 33.1 °F 26.9 °F 19.9 °F 59% 30.47 in - NNE 6.9 mph - N/A   Unknown
11:54 AM 34.0 °F 28.8 °F 21.0 °F 59% 30.45 in - North 5.8 mph - N/A   Unknown
12:54 PM 33.1 °F 27.7 °F 21.0 °F 61% 30.43 in - North 5.8 mph - N/A   Unknown
1:54 PM 33.1 °F 28.7 °F 21.0 °F 61% 30.40 in - North 4.6 mph - N/A   Unknown
2:54 PM 34.0 °F 29.8 °F 21.9 °F 61% 30.41 in - NNW 4.6 mph - N/A   Unknown
3:54 PM 33.1 °F - 21.0 °F 61% 30.41 in - Calm Calm - N/A   Unknown
4:54 PM 32.0 °F - 21.0 °F 64% 30.40 in - Calm Calm - N/A   Unknown
5:54 PM 28.0 °F - 21.0 °F 75% 30.40 in - Calm Calm - N/A   Unknown
6:54 PM 28.9 °F - 25.0 °F 85% 30.43 in - Calm Calm - N/A   Unknown
7:54 PM 25.0 °F - 21.0 °F 85% 30.40 in - Calm Calm - N/A   Unknown
8:54 PM 24.1 °F - 19.9 °F 84% 30.40 in - Calm Calm - N/A   Unknown
9:54 PM 28.0 °F - 25.0 °F 88% 30.38 in - Calm Calm - N/A   Unknown
10:54 PM 28.0 °F - 25.0 °F 88% 30.37 in - Calm Calm - N/A   Unknown
11:54 PM 30.9 °F - 27.0 °F 85% 30.33 in - Calm Calm - N/A   Unknown